TimeCDT,TemperatureF,Dew PointF,Humidity,Sea Level PressureIn,VisibilityMPH,Wind Direction,Wind SpeedMPH,Gust SpeedMPH,PrecipitationIn,Events,Conditions,WindDirDegrees,DateUTC
12:53 AM,43.0,39.9,89,29.64,5.0,North,9.2,-,N/A,,Overcast,10,2013-03-10 06:53:00
1:53 AM,42.1,39.0,89,29.64,10.0,North,17.3,23.0,N/A,,Overcast,350,2013-03-10 07:53:00
3:53 AM,39.2,37.4,93,29.62,8.0,North,16.1,25.3,N/A,,Overcast,350,2013-03-10 08:53:00
4:53 AM,37.0,34.0,89,29.65,6.0,North,18.4,29.9,N/A,,Overcast,350,2013-03-10 09:53:00
5:53 AM,36.0,34.0,93,29.72,6.0,North,16.1,21.9,N/A,,Overcast,350,2013-03-10 10:53:00
6:53 AM,35.6,33.8,93,29.69,6.0,North,19.6,29.9,N/A,,Overcast,360,2013-03-10 11:53:00
7:53 AM,35.1,33.1,92,29.74,5.0,North,17.3,26.5,0.00,Rain,Light Rain,350,2013-03-10 12:53:00
8:53 AM,34.0,32.0,92,29.75,6.0,North,19.6,27.6,0.00,,Overcast,350,2013-03-10 13:53:00
9:53 AM,34.0,30.9,89,29.77,4.0,North,17.3,23.0,N/A,,Overcast,350,2013-03-10 14:53:00
10:32 AM,33.8,30.2,87,29.76,2.0,North,19.6,27.6,0.00,,Overcast,350,2013-03-10 15:32:00
10:53 AM,33.1,30.9,92,29.76,1.5,North,19.6,27.6,0.00,Snow,Light Snow,350,2013-03-10 15:53:00
11:11 AM,32.0,30.2,93,29.77,2.0,North,19.6,29.9,0.00,,Overcast,350,2013-03-10 16:11:00
11:30 AM,32.0,32.0,100,29.76,2.5,North,21.9,29.9,0.00,Rain,Light Freezing Rain,350,2013-03-10 16:30:00
11:45 AM,32.0,30.2,93,29.76,3.0,North,23.0,33.4,0.00,Rain,Light Freezing Rain,350,2013-03-10 16:45:00
11:53 AM,32.0,30.9,96,29.78,3.0,North,18.4,33.4,0.00,Rain,Light Freezing Rain,350,2013-03-10 16:53:00
12:33 PM,32.0,30.2,93,29.78,4.0,North,20.7,31.1,0.00,Snow,Light Snow,350,2013-03-10 17:33:00
12:44 PM,32.0,30.2,93,29.78,4.0,North,24.2,31.1,0.00,,Overcast,350,2013-03-10 17:44:00
12:53 PM,32.0,28.9,88,29.80,5.0,North,18.4,35.7,0.00,,Overcast,350,2013-03-10 17:53:00
1:53 PM,32.0,28.0,85,29.78,7.0,NNW,21.9,31.1,0.00,,Overcast,340,2013-03-10 18:53:00
2:53 PM,30.9,26.1,82,29.79,9.0,NNW,17.3,31.1,N/A,,Overcast,340,2013-03-10 19:53:00
3:02 PM,30.2,26.6,86,29.78,10.0,NNW,16.1,31.1,N/A,,Overcast,340,2013-03-10 20:02:00
3:53 PM,30.9,26.1,82,29.82,10.0,NNW,18.4,28.8,N/A,,Overcast,340,2013-03-10 20:53:00
4:53 PM,30.0,25.0,82,29.84,6.0,NNW,23.0,29.9,0.00,,Overcast,330,2013-03-10 21:53:00
5:53 PM,28.9,24.1,82,29.86,10.0,NNW,20.7,34.5,0.00,,Overcast,330,2013-03-10 22:53:00
6:53 PM,27.0,23.0,85,29.88,10.0,NNW,19.6,31.1,0.00,,Overcast,330,2013-03-10 23:53:00
7:35 PM,26.6,23.0,86,29.86,6.0,NW,25.3,34.5,0.00,Snow,Light Snow,320,2013-03-11 00:35:00
7:53 PM,26.1,21.9,84,29.90,6.0,NW,17.3,24.2,0.00,Snow,Light Snow,320,2013-03-11 00:53:00
8:53 PM,25.0,21.0,85,29.92,7.0,NW,19.6,32.2,0.00,Snow,Light Snow,320,2013-03-11 01:53:00
9:53 PM,25.0,19.9,81,29.94,10.0,NW,16.1,28.8,0.00,,Overcast,320,2013-03-11 02:53:00
10:34 PM,24.8,21.2,86,29.91,10.0,NW,17.3,28.8,0.00,,Overcast,320,2013-03-11 03:34:00
10:44 PM,24.8,19.4,80,29.91,10.0,NW,19.6,28.8,0.00,,Overcast,320,2013-03-11 03:44:00
10:53 PM,25.0,19.9,81,29.94,10.0,NW,21.9,28.8,0.00,,Overcast,320,2013-03-11 03:53:00
11:26 PM,24.8,19.4,80,29.91,10.0,NW,17.3,26.5,N/A,,Overcast,320,2013-03-11 04:26:00
11:34 PM,24.8,19.4,80,29.91,10.0,NW,19.6,32.2,N/A,,Overcast,310,2013-03-11 04:34:00
11:45 PM,24.8,19.4,80,29.91,10.0,NW,18.4,26.5,N/A,,Overcast,320,2013-03-11 04:45:00
11:53 PM,25.0,19.9,81,29.94,10.0,NW,16.1,26.5,N/A,,Overcast,320,2013-03-11 04:53:00
12:01 AM,24.8,19.4,80,29.91,10.0,NW,18.4,27.6,N/A,,Overcast,320,2013-03-11 05:01:00
12:09 AM,24.8,19.4,80,29.90,10.0,NW,20.7,27.6,N/A,,Overcast,320,2013-03-11 05:09:00
12:53 AM,25.0,21.0,85,29.94,10.0,NW,16.1,24.2,N/A,,Overcast,320,2013-03-11 05:53:00